[[{"header":{"parameterUnit":"m.s-1","parameterCategory":1,"la1":30.2992,"la2":30.254,"lo1":-89.0895,"lo2":-89.0443,"dy":0.0025,"dx":0.0025,"nx":19,"ny":19,"refTime":"2026-04-22T21:00:00:Z","depth":0,"parameterNumber":2,"parameterNumberName":"U-component_of_WINDS"},"data":[0,0,0,-1.5914,-1.5914,-1.5934,-1.5934,-1.5959,-1.5959,0,0,0,0,0,0,0,0,0,0,0,-1.5907,-1.5907,-1.5914,-1.5914,-1.5934,-1.5934,-1.5959,-1.5959,0,0,0,0,0,0,0,0,0,0,0,-1.5907,-1.5907,-1.5907,-1.5914,-1.5934,-1.5934,-1.5959,-1.5944,0,0,0,0,0,0,0,0,0,0,-1.5926,-1.5918,-1.5907,-1.5907,-1.5915,-1.5934,-1.5934,-1.5944,-1.5945,-1.595,0,-1.5952,0,-1.5956,-1.5961,-1.5961,0,0,0,-1.5916,-1.5916,-1.5923,-1.5907,-1.5915,-1.5934,-1.5925,-1.5945,-1.5946,-1.5952,-1.5953,-1.5954,-1.5956,-1.5961,-1.5961,-1.5981,-1.5981,0,0,-1.5915,-1.591,-1.5921,-1.5924,-1.5919,-1.5925,-1.5926,-1.5946,-1.5947,-1.5953,-1.5954,-1.5957,-1.5961,-1.5961,-1.5981,-1.5981,0,0,0,-1.5911,-1.5909,-1.5915,-1.5923,-1.5926,-1.5925,-1.5927,-1.5946,-1.5948,-1.5955,-1.5957,-1.5961,-1.5961,-1.598,-1.5981,-1.5978,0,0,0,-1.591,-1.5907,-1.5915,-1.5912,-1.5926,-1.5936,-1.5926,-1.5947,-1.5949,-1.5957,-1.5961,-1.5962,-1.598,-1.5981,-1.5978,-1.5977,0,0,0,-1.5906,-1.5907,-1.5909,-1.5912,-1.592,-1.5936,-1.5939,-1.5947,-1.5951,-1.5961,-1.5962,-1.598,-1.598,-1.5978,-1.5977,-1.5981,0,0,0,-1.5901,-1.5906,-1.5909,-1.5916,-1.592,-1.5933,-1.5939,-1.595,-1.5958,-1.5961,-1.598,-1.5981,-1.5978,-1.5977,-1.5981,-1.5984,-1.5984,0,0,-1.5905,-1.5907,-1.5911,-1.5914,-1.5926,-1.5931,-1.5943,-1.5955,-1.5961,-1.5974,-1.5975,-1.5978,-1.5977,-1.5981,-1.5989,-1.5989,0,0,0,-1.5911,-1.5914,-1.5919,-1.5926,-1.5935,-1.5943,-1.5954,-1.5958,-1.597,-1.5966,-1.598,-1.598,-1.5983,-1.5984,-1.5985,-1.5987,-1.5981,-1.5981,-1.5981,-1.5911,-1.5917,-1.5925,-1.5934,-1.5941,-1.5952,-1.5959,-1.5968,-1.5972,-1.5976,-1.598,-1.5983,-1.5985,-1.5985,-1.5988,-1.5982,-1.5982,-1.5982,-1.5982,-1.5918,-1.5924,-1.5929,-1.5939,-1.5946,-1.5955,-1.5967,-1.597,-1.598,-1.5981,-1.5983,-1.5983,-1.5985,-1.5988,-1.5981,-1.5981,-1.5981,-1.5981,-1.5981,-1.5919,-1.5922,-1.5928,-1.5939,-1.5947,-1.5957,-1.5966,-1.5973,-1.5979,-1.5981,-1.5987,-1.5987,-1.5988,-1.5983,-1.5983,-1.5984,-1.5984,-1.5984,-1.5984,-1.5917,-1.5923,-1.5929,-1.594,-1.5945,-1.5954,-1.5966,-1.5972,-1.5982,-1.5986,-1.5986,-1.5991,-1.5984,-1.5982,-1.5984,-1.5984,-1.5984,-1.5984,-1.5984,-1.5922,-1.5922,-1.5932,-1.5937,-1.595,-1.5959,-1.5967,-1.598,-1.5986,-1.5991,-1.5996,-1.599,-1.5992,-1.5992,-1.599,-1.5994,-1.5994,-1.5994,-1.5994,-1.5923,-1.5924,-1.5936,-1.5945,-1.5954,-1.5963,-1.5975,-1.5985,-1.5996,-1.6001,-1.6001,-1.6,-1.6,-1.6002,-1.6002,-1.6001,-1.6007,-1.6007,-1.6007,-1.5926,-1.5929,-1.5937,-1.5946,-1.5957,-1.5967,-1.5979,-1.5991,-1.6003,-1.6007,-1.6005,-1.6004,-1.6002,-1.6001,-1.6005,-1.6004,-1.6003,0,0]},{"header":{"parameterUnit":"m.s-1","parameterCategory":1,"la1":30.2992,"la2":30.254,"lo1":-89.0895,"lo2":-89.0443,"dy":0.0025,"dx":0.0025,"nx":19,"ny":19,"refTime":"2026-04-22T21:00:00:Z","depth":0,"parameterNumber":3,"parameterNumberName":"V-component_of_WINDS"},"data":[0,0,0,4.9751,4.9754,4.9904,4.9904,5.009,5.0092,0,0,0,0,0,0,0,0,0,0,0,4.9707,4.9708,4.9751,4.9755,4.9904,4.9904,5.009,5.0092,0,0,0,0,0,0,0,0,0,0,0,4.9706,4.9708,4.971,4.9755,4.9904,4.9904,5.009,4.9978,0,0,0,0,0,0,0,0,0,0,4.9834,4.9793,4.9708,4.971,4.9756,4.9903,4.9904,4.9973,4.9985,5.0022,0,5.0057,0,5.0078,5.0104,5.0105,0,0,0,4.9754,4.9783,4.9824,4.971,4.9758,4.9903,4.9836,4.998,4.9993,5.0038,5.0059,5.0066,5.0081,5.0105,5.0106,5.0328,5.0329,0,0,4.9746,4.9733,4.9814,4.9833,4.9813,4.9831,4.9841,4.9988,5.0009,5.006,5.0071,5.0084,5.0107,5.0108,5.0327,5.0328,0,0,0,4.9723,4.9727,4.9764,4.9825,4.9853,4.9836,4.9847,5.0003,5.0016,5.0073,5.0086,5.0108,5.011,5.0326,5.0328,5.037,0,0,0,4.9718,4.9714,4.9761,4.9754,4.985,4.993,4.9858,5.0006,5.0023,5.0085,5.0108,5.0112,5.0325,5.0327,5.0367,5.0392,0,0,0,4.9697,4.9711,4.9733,4.9753,4.9818,4.9928,4.995,5.001,5.0031,5.0105,5.0112,5.0324,5.0326,5.0364,5.0387,5.0448,0,0,0,4.9671,4.9767,4.9734,4.9846,4.9816,4.9954,4.9949,5.0052,5.012,5.0109,5.0325,5.0327,5.0362,5.0384,5.0445,5.0498,5.0519,0,0,4.9784,4.978,4.9847,4.9822,4.9963,4.9933,5.0079,5.0152,5.0169,5.0273,5.0279,5.0368,5.0387,5.0447,5.0641,5.0657,0,0,0,4.9879,4.9927,4.9967,5.0034,5.0094,5.0147,5.02,5.0227,5.0317,5.0221,5.0407,5.0418,5.0454,5.048,5.0495,5.0527,5.0339,5.0339,5.0338,5.002,5.004,5.0153,5.0191,5.0255,5.0309,5.0363,5.0408,5.0406,5.045,5.0481,5.0596,5.0626,5.0637,5.067,5.051,5.051,5.051,5.0511,5.0189,5.0261,5.026,5.0369,5.0388,5.0478,5.0534,5.053,5.0615,5.0574,5.0606,5.0559,5.0655,5.0685,5.0514,5.0513,5.0513,5.0513,5.0512,5.0285,5.0323,5.0357,5.0456,5.053,5.0564,5.0648,5.0661,5.0673,5.0706,5.0741,5.074,5.0742,5.0722,5.0722,5.0723,5.0723,5.0723,5.0724,5.0371,5.0408,5.0479,5.0553,5.0598,5.0659,5.0715,5.0759,5.0811,5.0814,5.0814,5.0809,5.0661,5.0624,5.073,5.0729,5.0728,5.0727,5.0727,5.0536,5.0502,5.0611,5.0657,5.0745,5.0818,5.0835,5.0924,5.0962,5.1002,5.099,5.0879,5.0874,5.0862,5.0832,5.0985,5.0985,5.0985,5.0985,5.0618,5.0617,5.0733,5.0806,5.0878,5.0905,5.1026,5.1071,5.1111,5.1135,5.1115,5.1075,5.1063,5.1066,5.105,5.1022,5.122,5.122,5.122,5.0721,5.0729,5.0831,5.0873,5.0943,5.1002,5.1117,5.1198,5.1236,5.123,5.1155,5.1145,5.1081,5.106,5.1052,5.1028,5.0976,0,0]}]]